Meteo Giornale » Osservazioni meteo Italia » Brescia-Montichiari

ore: 12:50 - Osservazioni Meteo Brescia-Montichiari
Lat. 45° 24' N Lon. 10° 18' E Alt. 104 metri s.l.m.

sereno Europe/Rome

26 °C

Sereno

Temp. 24 Ore

16 °C

28 °C

Nord

5.5 Km/h

Dew point 14 °C

Umidità 47 %

Visibilità  10 Km

Il sole sorge alle ore 07:16

Il sole tramonta alle ore 18:59

Data e Ora Cielo e Fenomeni T °C DP °C Um. % Pres. hPa Vis. km Vento km/h
Oggi h: 12:50 sereno Sereno 26 14 47 1025 10 N 5.5
Oggi h: 12:20 sereno Sereno 25 14 50 1025 10 N 5.5
Oggi h: 11:50 sereno Sereno 25 14 50 1026 10 N 5.5
Oggi h: 11:20 sereno Sereno 24 14 53 1026 10 N 3.7
Oggi h: 10:50 sereno Sereno 23 14 56 1026 10 N 3.7
Oggi h: 10:20 sereno Sereno 22 14 60 1026 10 N 3.7
Oggi h: 09:50 sereno Sereno 21 14 64 1026 10 N 1.8
Oggi h: 09:20 sereno Sereno 20 15 72 1026 10 N 3.7
Oggi h: 08:50 sereno Sereno 18 15 82 1026 10 N 5.5
Oggi h: 08:20 sereno Sereno 16 14 87 1025 10 NO 7.4
Oggi h: 07:50 sereno Sereno 17 13 77 1025 10 N 3.7
Oggi h: 07:20 sereno Sereno 17 13 77 1025 10 N 9.3
Oggi h: 06:50 sereno Sereno 16 13 82 1025 10 N 5.5
Oggi h: 06:20 sereno Sereno 17 14 82 1025 10 N 7.4
Oggi h: 05:50 sereno Sereno 17 13 77 1025 10 N 7.4
Oggi h: 05:20 sereno Sereno 16 14 87 1025 10 N 5.5
Oggi h: 04:50 sereno Sereno 16 14 87 1025 10 N/NO 7.4
Oggi h: 04:20 sereno Sereno 17 14 82 1025 10 N 3.7
Oggi h: 03:50 sereno Sereno 17 14 82 1025 10 N 1.8
Oggi h: 03:20 sereno Sereno 16 14 87 1025 10 N 1.8
Oggi h: 02:50 sereno Sereno 17 14 82 1025 10 N 3.7
Oggi h: 02:20 sereno Sereno 19 14 72 1025 10 N/NE 11.1
Oggi h: 01:50 sereno Sereno 18 14 77 1025 10 N 7.4
Oggi h: 01:20 sereno Sereno 18 14 77 1025 10 NE 7.4
Oggi h: 00:50 sereno Sereno 19 14 72 1025 10 NE 11.1
Oggi h: 00:20 sereno Sereno 18 14 77 1025 10 N 5.5
Ieri h: 23:50 sereno Sereno 19 14 72 1025 10 N 11.1
Ieri h: 23:20 sereno Sereno 19 14 72 1025 10 N 9.3
Ieri h: 22:50 sereno Sereno 19 14 72 1025 10 N/NE 7.4
Ieri h: 22:20 sereno Sereno 20 14 68 1025 10 N 11.1
Ieri h: 21:50 sereno Sereno 20 14 68 1024 10 N/NE 7.4
Ieri h: 21:20 sereno Sereno 20 15 72 1024 10 N/NE 9.3
Ieri h: 20:50 sereno Sereno 21 15 68 1024 10 N/NE 7.4
Ieri h: 20:20 sereno Sereno 22 14 60 1024 10 N/NE 7.4
Ieri h: 19:50 sereno Sereno 23 12 49 1024 10 N 0
Ieri h: 19:20 foschia Foschia 24 12 47 1023 2 N 0
Ieri h: 18:50 sereno Sereno 25 12 44 1023 10 N 3.7
Ieri h: 18:20 sereno Sereno 27 11 36 1023 10 N 3.7
Ieri h: 17:50 sereno Sereno 27 11 36 1023 10 N 5.5
Ieri h: 17:20 sereno Sereno 28 11 34 1023 10 N 3.7
Ieri h: 16:50 sereno Sereno 28 11 34 1023 10 N 5.5
Ieri h: 16:20 sereno Sereno 28 11 34 1023 10 N 5.5
Ieri h: 15:50 sereno Sereno 28 12 37 1023 10 SE 7.4
Ieri h: 15:20 sereno Sereno 28 11 34 1024 10 N 5.5
Ieri h: 14:50 sereno Sereno 27 11 36 1024 10 S/SO 7.4
Ieri h: 14:20 sereno Sereno 27 11 36 1024 10 N 3.7
Ieri h: 13:50 sereno Sereno 27 12 39 1024 10 N 3.7